Location: Caltech
(34.1382°N, 118.1253°W)
Time: 13:57:18
(UTC-07:00)

TMSAT-1 - Visible Passes

Search period start: 26 June 2016 00:00
Search period end: 06 July 2016 00:00
Orbit: 809 x 811 km, 98.5° (Epoch: 25 June)

Date Brightness Start Highest point End Pass type
(mag) Time Alt. Az. Time Alt. Az. Time Alt. Az.
26 Jun 10.0 02:35:49 10° NNE 02:40:46 39° E 02:41:36 36° ESE visible
26 Jun 10.6 04:16:21 10° NNW 04:20:22 22° WNW 04:22:45 17° WSW visible
27 Jun 10.8 02:12:57 10° NE 02:17:04 23° E 02:17:43 22° ESE visible
27 Jun 9.9 03:52:09 10° N 03:57:00 37° WNW 03:58:52 28° WSW visible
28 Jun 11.4 01:50:58 10° ENE 01:53:18 13° E 01:53:50 13° E visible
28 Jun 9.2 03:28:18 10° N 03:33:33 63° WNW 03:34:59 45° SW visible
29 Jun 9.1 03:04:42 10° NNE 03:10:02 77° ESE 03:11:06 57° S visible
29 Jun 11.2 04:47:29 10° NW 04:49:12 12° WNW 04:50:55 10° W visible
30 Jun 9.8 02:41:21 10° NNE 02:46:26 44° E 02:47:13 41° ESE visible
30 Jun 10.7 04:22:13 10° NNW 04:25:57 20° WNW 04:28:22 15° W visible
01 Jul 10.6 02:18:22 10° NE 02:22:45 26° E 02:23:20 25° ESE visible
01 Jul 10.0 03:57:55 10° N 04:02:36 32° WNW 04:04:28 25° WSW visible
02 Jul 11.3 01:56:02 10° ENE 01:59:00 15° E 01:59:27 15° E visible
02 Jul 9.3 03:33:59 10° N 03:39:10 55° WNW 03:40:36 42° WSW visible
03 Jul 9.0 03:10:19 10° NNE 03:15:40 87° ESE 03:16:42 60° S visible
04 Jul 9.6 02:46:55 10° NNE 02:52:05 51° E 02:52:49 47° SE visible
04 Jul 10.8 04:28:08 10° NNW 04:31:31 17° WNW 04:33:58 13° W visible
05 Jul 10.4 02:23:49 10° NE 02:28:25 29° E 02:28:55 29° ESE visible
05 Jul 10.2 04:03:42 10° NNW 04:08:11 29° WNW 04:10:04 23° WSW visible
